Regional Weather Roundup
Issued by NWS

Home | Current Version | Previous Version | Graphics & Text | Print | Product List | Glossary On
Versions: 1 2 3 4 5 6 7 8 9 10 11 12 13 14 15 16 17 18 19 20 21 22 23 24 25 26 27 28 29 30 31 32 33 34 35 36 37 38 39 40 41 42 43 44 45 46 47 48 49 50
000
ASUS43 KBIS 280620
RWRND

NORTH DAKOTA REGIONAL WEATHER ROUNDUP
NATIONAL WEATHER SERVICE BISMARCK ND
100 AM CDT THU AUG 28 2014

NOTE: "FAIR" INDICATES FEW OR NO CLOUDS BELOW 12,000 FEET WITH NO
SIGNIFICANT WEATHER AND/OR OBSTRUCTIONS TO VISIBILITY.


NDZ001>003-009>011-017-280700-
NORTHWEST NORTH DAKOTA

CITY           SKY/WX    TMP DP  RH WIND       PRES   REMARKS
WILLISTON      PTCLDY    67  55  65 S6        29.94S
6HR MIN TEMP:  66; 6HR MAX TEMP:  82; 6HR PCP: TRACE;

MINOT          FAIR      60  58  92 CALM      29.95F
MINOT AFB      FAIR      61  60  99 S7        29.95F
$$

NDZ018>021-031>035-040>046-280700-
SOUTHWEST NORTH DAKOTA

CITY           SKY/WX    TMP DP  RH WIND       PRES   REMARKS
BISMARCK       PTCLDY    65  60  84 CALM      30.01F
6HR MIN TEMP:  61; 6HR MAX TEMP:  76;

DICKINSON      CLEAR     61  59  93 S10       29.99F
GARRISON         N/A     61  60  97 S6        29.99F
6HR MIN TEMP:  61; 6HR MAX TEMP:  75;

HETTINGER ARPT FOG       56  55  97 CALM      30.02F VSB 1/2
$$

NDZ004>008-012>016-024-026-027-054-280700-
NORTHEAST NORTH DAKOTA

CITY           SKY/WX    TMP DP  RH WIND       PRES   REMARKS
GRAND FORKS    FAIR      62  58  86 S7        30.03F
GRND FRKS AFB  FAIR      60  60  99 S8        30.04F
DEVILS LAKE    MOCLDY    64  57  77 S7        30.00F
$$

NDZ022-023-025-028>030-036>039-047>053-280700-
SOUTHEAST NORTH DAKOTA

CITY           SKY/WX    TMP DP  RH WIND       PRES   REMARKS
FARGO          CLOUDY    65  60  84 SE8       30.05F
6HR MIN TEMP:  63; 6HR MAX TEMP:  73;

JAMESTOWN      CLOUDY    66  60  81 S8        30.03F
$$



USA.gov is the U.S. government's official web portal to all federal, state and local government web resources and services.